When you browse on this site, cookies collect data to enhance your experience and personalize the content and advertising you see.
Visit our Privacy Policy to learn more. By continuing to use the site, you agree to this use of cookies and data.
  • In United Kingdom
  • List of Countries
  • For 7 days
  • Water Temperature
  • Weather Map
  • Weather Widgets
  • user-avatar
    Login

    Hourly Weather Kerikeri

    Today, 29 January, Wednesday

    Time Temperature Precipitation Wind Pressure Humidity
    00:00 +20°C° 0 mm 1 mps 754 mmHg 95%
    01:00 +20°C° 0 mm 1 mps 754 mmHg 96%
    02:00 +19°C° 0 mm 1 mps 754 mmHg 97%
    03:00 +19°C° 0 mm 1 mps 754 mmHg 98%
    04:00 +20°C° 0 mm 1 mps 754 mmHg 97%
    05:00 +20°C° 0 mm 1 mps 753 mmHg 97%
    06:00 +20°C° 0 mm 1 mps 753 mmHg 98%
    07:00 +22°C° 0.1 mm 1 mps 753 mmHg 90%
    08:00 +22°C° 0.1 mm 0 mps 754 mmHg 81%
    09:00 +24°C° 0.1 mm 0 mps 754 mmHg 73%
    10:00 +23°C° 1.2 mm 0 mps 754 mmHg 78%
    11:00 +25°C° 1.2 mm 1 mps 753 mmHg 83%
    12:00 +25°C° 0 mm 2 mps 753 mmHg 86%
    13:00 +25°C° 1 mm 2 mps 753 mmHg 87%
    14:00 +25°C° 1 mm 2 mps 753 mmHg 87%
    15:00 +25°C° 1 mm 2 mps 753 mmHg 88%
    16:00 +25°C° 0.7 mm 2 mps 752 mmHg 86%
    17:00 +25°C° 0.7 mm 1 mps 752 mmHg 83%
    18:00 +24°C° 0 mm 1 mps 752 mmHg 86%
    19:00 +23°C° 0.1 mm 1 mps 752 mmHg 89%
    20:00 +21°C° 0.1 mm 2 mps 753 mmHg 92%
    21:00 +20°C° 0.1 mm 2 mps 753 mmHg 95%
    22:00 +19°C° 0 mm 2 mps 753 mmHg 96%
    23:00 +20°C° 0 mm 1 mps 752 mmHg 97%

    Tomorrow, 30 January, Thursday

    Time Temperature Precipitation Wind Pressure Humidity
    00:00 +19°C° 0 mm 1 mps 752 mmHg 98%
    01:00 +19°C° 0 mm 1 mps 752 mmHg 99%
    02:00 +19°C° 0 mm 1 mps 752 mmHg 99%
    03:00 +18°C° 0 mm 2 mps 752 mmHg 99%
    04:00 +18°C° 0 mm 1 mps 752 mmHg 99%
    05:00 +18°C° 0 mm 1 mps 753 mmHg 99%
    06:00 +18°C° 0 mm 1 mps 753 mmHg 99%
    07:00 +21°C° 0 mm 1 mps 753 mmHg 88%
    08:00 +23°C° 0 mm 1 mps 754 mmHg 77%
    09:00 +25°C° 0 mm 1 mps 754 mmHg 66%
    10:00 +27°C° 0 mm 2 mps 754 mmHg 57%
    11:00 +29°C° 0 mm 2 mps 754 mmHg 48%
    12:00 +31°C° 0 mm 3 mps 754 mmHg 38%
    13:00 +31°C° 0 mm 3 mps 754 mmHg 37%
    14:00 +32°C° 0 mm 4 mps 754 mmHg 36%
    15:00 +33°C° 0 mm 4 mps 754 mmHg 35%
    16:00 +30°C° 0 mm 4 mps 754 mmHg 41%
    17:00 +29°C° 0 mm 4 mps 754 mmHg 46%
    18:00 +27°C° 0 mm 4 mps 754 mmHg 51%
    19:00 +24°C° 0 mm 3 mps 755 mmHg 66%
    20:00 +21°C° 0 mm 3 mps 755 mmHg 80%
    21:00 +18°C° 0 mm 2 mps 756 mmHg 94%
    22:00 +18°C° 0 mm 2 mps 756 mmHg 95%
    23:00 +17°C° 0 mm 2 mps 756 mmHg 97%

    Day after tomorrow, 31 January, Friday

    Time Temperature Precipitation Wind Pressure Humidity
    00:00 +18°C° 0 mm 1 mps 756 mmHg 99%
    01:00 +18°C° 0 mm 1 mps 756 mmHg 99%
    02:00 +18°C° 0 mm 1 mps 756 mmHg 99%
    03:00 +18°C° 0 mm 1 mps 756 mmHg 99%
    04:00 +18°C° 0 mm 1 mps 756 mmHg 99%
    05:00 +18°C° 0 mm 1 mps 756 mmHg 99%
    06:00 +18°C° 0 mm 1 mps 756 mmHg 99%
    07:00 +21°C° 0 mm 1 mps 756 mmHg 86%
    08:00 +23°C° 0 mm 1 mps 757 mmHg 73%
    09:00 +26°C° 0 mm 1 mps 757 mmHg 60%
    10:00 +28°C° 0 mm 2 mps 758 mmHg 56%
    11:00 +29°C° 0 mm 3 mps 758 mmHg 51%
    12:00 +31°C° 0 mm 3 mps 758 mmHg 46%
    13:00 +31°C° 0 mm 3 mps 758 mmHg 47%
    14:00 +30°C° 0 mm 3 mps 757 mmHg 48%
    15:00 +30°C° 0 mm 3 mps 757 mmHg 49%
    16:00 +29°C° 0 mm 3 mps 757 mmHg 51%
    17:00 +28°C° 0 mm 3 mps 757 mmHg 53%
    18:00 +28°C° 0 mm 3 mps 757 mmHg 56%
    19:00 +25°C° 0 mm 3 mps 757 mmHg 68%
    20:00 +21°C° 0 mm 2 mps 757 mmHg 80%
    21:00 +18°C° 0 mm 2 mps 758 mmHg 93%
    22:00 +18°C° 0 mm 2 mps 758 mmHg 95%
    23:00 +17°C° 0 mm 2 mps 758 mmHg 97%

    1 February, Saturday

    Time Temperature Precipitation Wind Pressure Humidity
    00:00 +17°C° 0 mm 2 mps 758 mmHg 98%
    01:00 +17°C° 0 mm 2 mps 758 mmHg 98%
    02:00 +18°C° 0 mm 1 mps 757 mmHg 98%
    03:00 +16°C° 0 mm 1 mps 757 mmHg 98%
    04:00 +16°C° 0 mm 1 mps 757 mmHg 98%
    05:00 +16°C° 0 mm 1 mps 757 mmHg 98%
    06:00 +16°C° 0 mm 1 mps 757 mmHg 98%
    07:00 +20°C° 0 mm 1 mps 757 mmHg 82%
    08:00 +23°C° 0 mm 1 mps 758 mmHg 65%
    09:00 +26°C° 0 mm 1 mps 758 mmHg 49%
    10:00 +29°C° 0 mm 1 mps 758 mmHg 42%
    11:00 +31°C° 0 mm 2 mps 758 mmHg 35%
    12:00 +34°C° 0 mm 2 mps 758 mmHg 28%
    13:00 +35°C° 0 mm 3 mps 758 mmHg 28%
    14:00 +35°C° 0 mm 3 mps 757 mmHg 28%
    15:00 +35°C° 0 mm 3 mps 757 mmHg 28%
    16:00 +33°C° 0 mm 3 mps 756 mmHg 34%
    17:00 +31°C° 0 mm 2 mps 756 mmHg 39%
    18:00 +29°C° 0 mm 2 mps 756 mmHg 44%
    19:00 +26°C° 0 mm 2 mps 756 mmHg 57%
    20:00 +23°C° 0 mm 2 mps 757 mmHg 71%
    21:00 +18°C° 0 mm 2 mps 757 mmHg 84%
    22:00 +18°C° 0 mm 2 mps 757 mmHg 87%
    23:00 +17°C° 0 mm 2 mps 757 mmHg 90%

    2 February, Sunday

    Time Temperature Precipitation Wind Pressure Humidity
    00:00 +16°C° 0 mm 2 mps 757 mmHg 92%
    01:00 +16°C° 0 mm 2 mps 756 mmHg 93%
    02:00 +16°C° 0 mm 1 mps 756 mmHg 94%
    03:00 +15°C° 0 mm 1 mps 755 mmHg 95%
    04:00 +15°C° 0 mm 1 mps 755 mmHg 96%
    05:00 +15°C° 0 mm 1 mps 755 mmHg 96%
    06:00 +15°C° 0 mm 1 mps 755 mmHg 97%
    07:00 +19°C° 0 mm 1 mps 755 mmHg 84%
    08:00 +22°C° 0 mm 1 mps 756 mmHg 71%
    09:00 +25°C° 0 mm 1 mps 756 mmHg 57%
    10:00 +27°C° 0 mm 2 mps 756 mmHg 52%
    11:00 +29°C° 0 mm 2 mps 756 mmHg 47%
    12:00 +31°C° 0 mm 3 mps 756 mmHg 42%
    13:00 +31°C° 0 mm 2 mps 755 mmHg 42%
    14:00 +31°C° 0 mm 2 mps 755 mmHg 42%
    15:00 +31°C° 0 mm 2 mps 755 mmHg 43%
    16:00 +30°C° 0 mm 2 mps 755 mmHg 46%
    17:00 +29°C° 0 mm 2 mps 754 mmHg 49%
    18:00 +28°C° 0 mm 2 mps 754 mmHg 52%
    19:00 +25°C° 0 mm 2 mps 754 mmHg 65%
    20:00 +21°C° 0 mm 2 mps 755 mmHg 79%
    21:00 +19°C° 0 mm 1 mps 755 mmHg 92%
    22:00 +19°C° 0 mm 1 mps 755 mmHg 94%
    23:00 +19°C° 0 mm 1 mps 755 mmHg 96%

    3 February, Monday

    Time Temperature Precipitation Wind Pressure Humidity
    00:00 +18°C° 0 mm 1 mps 755 mmHg 98%
    01:00 +18°C° 0 mm 1 mps 754 mmHg 99%
    02:00 +18°C° 0 mm 1 mps 754 mmHg 99%
    03:00 +18°C° 0 mm 1 mps 754 mmHg 99%
    04:00 +18°C° 0 mm 1 mps 754 mmHg 99%
    05:00 +18°C° 0 mm 1 mps 754 mmHg 99%
    06:00 +18°C° 0 mm 1 mps 754 mmHg 99%
    07:00 +21°C° 0 mm 1 mps 754 mmHg 88%
    08:00 +23°C° 0 mm 1 mps 754 mmHg 77%
    09:00 +26°C° 0 mm 1 mps 755 mmHg 67%
    10:00 +28°C° 0 mm 2 mps 755 mmHg 56%
    11:00 +30°C° 0 mm 2 mps 755 mmHg 45%
    12:00 +33°C° 0 mm 3 mps 755 mmHg 34%
    13:00 +34°C° 0 mm 3 mps 754 mmHg 32%
    14:00 +34°C° 0 mm 4 mps 753 mmHg 30%
    15:00 +35°C° 0 mm 4 mps 753 mmHg 28%
    16:00 +33°C° 0 mm 4 mps 753 mmHg 32%
    17:00 +32°C° 0 mm 4 mps 753 mmHg 35%
    18:00 +29°C° 0 mm 4 mps 753 mmHg 39%
    19:00 +26°C° 0 mm 3 mps 753 mmHg 54%
    20:00 +23°C° 0 mm 2 mps 753 mmHg 70%
    21:00 +18°C° 0 mm 2 mps 753 mmHg 86%
    22:00 +18°C° 0 mm 2 mps 753 mmHg 88%
    23:00 +17°C° 0 mm 2 mps 753 mmHg 91%
    Show more